Time,TemperatureF,DewpointF,PressureIn,WindDirection,WindDirectionDegrees,WindSpeedMPH,WindSpeedGustMPH,Humidity,HourlyPrecipIn,Conditions,Clouds,dailyrainin,SoftwareType,DateUTC
2013-01-08 00:00:00,20.0,15.7,30.02,SSW,202,3.0,7.0,83,0.00,,,-99.99,Weather View 32 v60,2013-01-08 06:00:00,
2013-01-08 00:05:00,20.0,15.4,30.02,SW,225,1.0,7.0,82,0.00,,,-99.99,Weather View 32 v60,2013-01-08 06:05:00,
2013-01-08 00:10:00,19.0,14.7,30.02,SW,225,3.0,7.0,83,0.00,,,-99.99,Weather View 32 v60,2013-01-08 06:10:00,
2013-01-08 00:15:00,19.0,14.7,30.02,WSW,248,1.0,7.0,83,0.00,,,-99.99,Weather View 32 v60,2013-01-08 06:15:00,
2013-01-08 00:20:00,18.0,13.7,30.03,WSW,248,0.0,7.0,83,0.00,,,-99.99,Weather View 32 v60,2013-01-08 06:20:00,
2013-01-08 00:25:00,18.0,13.7,30.02,SW,225,2.0,7.0,83,0.00,,,-99.99,Weather View 32 v60,2013-01-08 06:25:00,
2013-01-08 00:30:00,18.0,14.0,30.02,WSW,248,2.0,6.0,84,0.00,,,-99.99,Weather View 32 v60,2013-01-08 06:30:00,
2013-01-08 00:35:00,18.0,14.0,30.03,West,270,1.0,6.0,84,0.00,,,-99.99,Weather View 32 v60,2013-01-08 06:35:00,
2013-01-08 00:40:00,17.0,13.0,30.03,WSW,248,4.0,5.0,84,0.00,,,-99.99,Weather View 32 v60,2013-01-08 06:40:00,
2013-01-08 00:45:00,17.0,13.0,30.03,SW,225,3.0,5.0,84,0.00,,,-99.99,Weather View 32 v60,2013-01-08 06:45:00,
2013-01-08 00:50:00,17.0,13.0,30.03,West,270,3.0,5.0,84,0.00,,,-99.99,Weather View 32 v60,2013-01-08 06:50:00,
2013-01-08 00:55:00,17.0,13.0,30.03,SW,225,2.0,5.0,84,0.00,,,-99.99,Weather View 32 v60,2013-01-08 06:55:00,
2013-01-08 01:00:00,17.0,13.0,30.03,WSW,248,2.0,5.0,84,0.00,,,-99.99,Weather View 32 v60,2013-01-08 07:00:00,
2013-01-08 01:05:00,17.0,13.0,30.03,SW,225,1.0,5.0,84,0.00,,,-99.99,Weather View 32 v60,2013-01-08 07:05:00,
2013-01-08 01:10:00,17.0,13.0,30.03,WSW,248,1.0,5.0,84,0.00,,,-99.99,Weather View 32 v60,2013-01-08 07:10:00,
2013-01-08 01:15:00,17.0,13.0,30.03,SSW,202,3.0,5.0,84,0.00,,,-99.99,Weather View 32 v60,2013-01-08 07:15:00,
2013-01-08 01:20:00,17.0,13.0,30.03,SW,225,1.0,5.0,84,0.00,,,-99.99,Weather View 32 v60,2013-01-08 07:20:00,
2013-01-08 01:25:00,16.0,12.0,30.03,WSW,248,1.0,5.0,84,0.00,,,-99.99,Weather View 32 v60,2013-01-08 07:25:00,
2013-01-08 01:30:00,16.0,12.0,30.04,SW,225,1.0,5.0,84,0.00,,,-99.99,Weather View 32 v60,2013-01-08 07:30:00,
2013-01-08 01:35:00,15.0,11.0,30.03,SSW,202,1.0,5.0,84,0.00,,,-99.99,Weather View 32 v60,2013-01-08 07:35:00,
2013-01-08 01:40:00,15.0,11.0,30.04,WSW,248,0.0,5.0,84,0.00,,,-99.99,Weather View 32 v60,2013-01-08 07:40:00,
2013-01-08 01:45:00,14.0,10.3,30.03,WSW,248,1.0,5.0,85,0.00,,,-99.99,Weather View 32 v60,2013-01-08 07:45:00,
2013-01-08 01:50:00,14.0,10.3,30.04,West,270,1.0,5.0,85,0.00,,,-99.99,Weather View 32 v60,2013-01-08 07:50:00,
2013-01-08 01:55:00,14.0,10.3,30.04,SW,225,0.0,5.0,85,0.00,,,-99.99,Weather View 32 v60,2013-01-08 07:55:00,
2013-01-08 02:00:00,14.0,10.3,30.04,SW,225,1.0,5.0,85,0.00,,,-99.99,Weather View 32 v60,2013-01-08 08:00:00,
2013-01-08 02:05:00,14.0,10.3,30.04,WSW,248,0.0,4.0,85,0.00,,,-99.99,Weather View 32 v60,2013-01-08 08:05:00,
2013-01-08 02:10:00,14.0,10.3,30.04,SW,225,1.0,4.0,85,0.00,,,-99.99,Weather View 32 v60,2013-01-08 08:10:00,
2013-01-08 02:15:00,13.0,9.3,30.04,WSW,248,0.0,4.0,85,0.00,,,-99.99,Weather View 32 v60,2013-01-08 08:15:00,
2013-01-08 02:20:00,13.0,9.3,30.04,SW,225,0.0,3.0,85,0.00,,,-99.99,Weather View 32 v60,2013-01-08 08:20:00,
2013-01-08 02:25:00,13.0,9.3,30.04,WSW,248,0.0,3.0,85,0.00,,,-99.99,Weather View 32 v60,2013-01-08 08:25:00,
2013-01-08 02:30:00,12.0,8.4,30.04,West,270,1.0,3.0,85,0.00,,,-99.99,Weather View 32 v60,2013-01-08 08:30:00,
2013-01-08 02:35:00,12.0,8.4,30.04,WSW,248,1.0,3.0,85,0.00,,,-99.99,Weather View 32 v60,2013-01-08 08:35:00,
2013-01-08 02:40:00,12.0,8.4,30.04,WSW,248,1.0,3.0,85,0.00,,,-99.99,Weather View 32 v60,2013-01-08 08:40:00,
2013-01-08 02:45:00,12.0,8.4,30.04,WSW,248,3.0,3.0,85,0.00,,,-99.99,Weather View 32 v60,2013-01-08 08:45:00,
2013-01-08 02:50:00,11.0,7.4,30.03,WSW,248,1.0,3.0,85,0.00,,,-99.99,Weather View 32 v60,2013-01-08 08:50:00,
2013-01-08 02:55:00,11.0,7.4,30.03,WSW,248,2.0,4.0,85,0.00,,,-99.99,Weather View 32 v60,2013-01-08 08:55:00,
2013-01-08 03:00:00,11.0,7.4,30.03,SSW,202,1.0,4.0,85,0.00,,,-99.99,Weather View 32 v60,2013-01-08 09:00:00,
2013-01-08 03:05:00,10.0,6.4,30.03,WSW,248,1.0,4.0,85,0.00,,,-99.99,Weather View 32 v60,2013-01-08 09:05:00,
2013-01-08 03:10:00,10.0,6.4,30.03,SW,225,1.0,4.0,85,0.00,,,-99.99,Weather View 32 v60,2013-01-08 09:10:00,
2013-01-08 03:15:00,10.0,6.7,30.04,SW,225,0.0,4.0,86,0.00,,,-99.99,Weather View 32 v60,2013-01-08 09:15:00,
2013-01-08 03:20:00,10.0,6.7,30.04,SW,225,1.0,4.0,86,0.00,,,-99.99,Weather View 32 v60,2013-01-08 09:20:00,
2013-01-08 03:25:00,10.0,6.7,30.03,SW,225,1.0,4.0,86,0.00,,,-99.99,Weather View 32 v60,2013-01-08 09:25:00,
2013-01-08 03:35:00,9.0,5.7,30.04,West,270,1.0,4.0,86,0.00,,,-99.99,Weather View 32 v60,2013-01-08 09:35:00,
2013-01-08 03:40:00,9.0,5.7,30.03,WSW,248,1.0,4.0,86,0.00,,,-99.99,Weather View 32 v60,2013-01-08 09:40:00,
2013-01-08 03:50:00,9.0,5.7,30.03,SW,225,0.0,4.0,86,0.00,,,-99.99,Weather View 32 v60,2013-01-08 09:50:00,
2013-01-08 03:55:00,9.0,5.7,30.03,SW,225,0.0,3.0,86,0.00,,,-99.99,Weather View 32 v60,2013-01-08 09:55:00,
2013-01-08 04:00:00,9.0,5.7,30.03,SW,225,0.0,3.0,86,0.00,,,-99.99,Weather View 32 v60,2013-01-08 10:00:00,
2013-01-08 04:10:00,9.0,5.7,30.02,SW,225,0.0,3.0,86,0.00,,,-99.99,Weather View 32 v60,2013-01-08 10:10:00,
2013-01-08 04:20:00,8.0,4.7,30.02,SW,225,1.0,3.0,86,0.00,,,-99.99,Weather View 32 v60,2013-01-08 10:20:00,
2013-01-08 04:24:00,10.0,6.7,30.04,SW,225,1.0,4.0,86,0.00,,,-99.99,Weather View 32 v60,2013-01-08 10:24:00,
2013-01-08 04:30:00,10.0,6.7,30.03,WSW,248,0.0,4.0,86,0.00,,,-99.99,Weather View 32 v60,2013-01-08 10:30:00,
2013-01-08 04:40:00,8.0,4.7,30.02,SW,225,0.0,3.0,86,0.00,,,-99.99,Weather View 32 v60,2013-01-08 10:40:00,
2013-01-08 04:45:00,9.0,5.7,30.03,SW,225,0.0,4.0,86,0.00,,,-99.99,Weather View 32 v60,2013-01-08 10:45:00,
2013-01-08 05:05:00,9.0,5.7,30.03,SSW,202,1.0,3.0,86,0.00,,,-99.99,Weather View 32 v60,2013-01-08 11:05:00,
2013-01-08 05:15:00,8.0,4.7,30.02,SW,225,0.0,3.0,86,0.00,,,-99.99,Weather View 32 v60,2013-01-08 11:15:00,
2013-01-08 05:25:00,8.0,4.7,30.02,SW,225,0.0,3.0,86,0.00,,,-99.99,Weather View 32 v60,2013-01-08 11:25:00,
2013-01-08 05:30:00,8.0,4.7,30.02,SSW,202,0.0,3.0,86,0.00,,,-99.99,Weather View 32 v60,2013-01-08 11:30:00,
2013-01-08 05:35:00,8.0,4.7,30.02,SSW,202,0.0,3.0,86,0.00,,,-99.99,Weather View 32 v60,2013-01-08 11:35:00,
2013-01-08 05:50:00,8.0,4.7,30.02,SW,225,0.0,2.0,86,0.00,,,-99.99,Weather View 32 v60,2013-01-08 11:50:00,
2013-01-08 05:55:00,9.0,5.7,30.02,SW,225,0.0,1.0,86,0.00,,,-99.99,Weather View 32 v60,2013-01-08 11:55:00,
2013-01-08 06:05:00,8.0,4.7,30.02,SW,225,0.0,3.0,86,0.00,,,-99.99,Weather View 32 v60,2013-01-08 12:05:00,
2013-01-08 06:15:00,8.0,4.7,30.03,SSW,202,1.0,4.0,86,0.00,,,-99.99,Weather View 32 v60,2013-01-08 12:15:00,
2013-01-08 06:20:00,8.0,4.7,30.03,SW,225,0.0,4.0,86,0.00,,,-99.99,Weather View 32 v60,2013-01-08 12:20:00,
2013-01-08 06:25:00,7.0,3.7,30.03,SW,225,0.0,4.0,86,0.00,,,-99.99,Weather View 32 v60,2013-01-08 12:25:00,
2013-01-08 06:30:00,6.0,2.7,30.03,SW,225,0.0,4.0,86,0.00,,,-99.99,Weather View 32 v60,2013-01-08 12:30:00,
2013-01-08 06:35:00,6.0,2.7,30.03,SW,225,0.0,4.0,86,0.00,,,-99.99,Weather View 32 v60,2013-01-08 12:35:00,
2013-01-08 06:40:00,7.0,4.0,30.03,SW,225,0.0,4.0,87,0.00,,,-99.99,Weather View 32 v60,2013-01-08 12:40:00,
2013-01-08 06:45:00,8.0,4.9,30.04,WSW,248,0.0,4.0,87,0.00,,,-99.99,Weather View 32 v60,2013-01-08 12:45:00,
2013-01-08 06:50:00,7.0,3.7,30.03,South,180,1.0,4.0,86,0.00,,,-99.99,Weather View 32 v60,2013-01-08 12:50:00,
2013-01-08 06:55:00,7.0,3.7,30.03,ESE,112,1.0,4.0,86,0.00,,,-99.99,Weather View 32 v60,2013-01-08 12:55:00,
2013-01-08 07:00:00,8.0,4.9,30.03,SW,225,0.0,4.0,87,0.00,,,-99.99,Weather View 32 v60,2013-01-08 13:00:00,
2013-01-08 07:05:00,8.0,4.9,30.04,SW,225,0.0,4.0,87,0.00,,,-99.99,Weather View 32 v60,2013-01-08 13:05:00,
2013-01-08 07:10:00,8.0,4.7,30.04,SSW,202,0.0,4.0,86,0.00,,,-99.99,Weather View 32 v60,2013-01-08 13:10:00,
2013-01-08 07:15:00,8.0,4.7,30.04,SW,225,0.0,4.0,86,0.00,,,-99.99,Weather View 32 v60,2013-01-08 13:15:00,
2013-01-08 07:20:00,7.0,3.7,30.05,SW,225,0.0,3.0,86,0.00,,,-99.99,Weather View 32 v60,2013-01-08 13:20:00,
2013-01-08 07:25:00,7.0,3.7,30.05,SW,225,0.0,3.0,86,0.00,,,-99.99,Weather View 32 v60,2013-01-08 13:25:00,
2013-01-08 07:30:00,7.0,3.7,30.05,SW,225,0.0,3.0,86,0.00,,,-99.99,Weather View 32 v60,2013-01-08 13:30:00,
2013-01-08 07:35:00,7.0,3.7,30.05,SW,225,0.0,3.0,86,0.00,,,-99.99,Weather View 32 v60,2013-01-08 13:35:00,
2013-01-08 07:40:00,7.0,4.0,30.05,South,180,0.0,3.0,87,0.00,,,-99.99,Weather View 32 v60,2013-01-08 13:40:00,
2013-01-08 07:50:00,8.0,4.9,30.04,SSW,202,0.0,3.0,87,0.00,,,-99.99,Weather View 32 v60,2013-01-08 13:50:00,
2013-01-08 07:59:00,8.0,4.7,30.05,SSW,202,0.0,1.0,86,0.00,,,-99.99,Weather View 32 v60,2013-01-08 13:59:00,
2013-01-08 08:05:00,8.0,4.9,30.06,SW,225,0.0,0.0,87,0.00,,,-99.99,Weather View 32 v60,2013-01-08 14:05:00,
2013-01-08 08:15:00,8.0,4.7,30.05,West,270,0.0,0.0,86,0.00,,,-99.99,Weather View 32 v60,2013-01-08 14:15:00,
2013-01-08 08:20:00,8.0,4.7,30.05,SSE,158,1.0,1.0,86,0.00,,,-99.99,Weather View 32 v60,2013-01-08 14:20:00,
2013-01-08 08:25:00,8.0,4.9,30.05,SSW,202,1.0,2.0,87,0.00,,,-99.99,Weather View 32 v60,2013-01-08 14:25:00,
2013-01-08 08:30:00,9.0,5.9,30.05,South,180,1.0,2.0,87,0.00,,,-99.99,Weather View 32 v60,2013-01-08 14:30:00,
2013-01-08 08:35:00,9.0,5.9,30.04,SSW,202,1.0,2.0,87,0.00,,,-99.99,Weather View 32 v60,2013-01-08 14:35:00,
2013-01-08 08:40:00,10.0,6.9,30.04,SSW,202,1.0,2.0,87,0.00,,,-99.99,Weather View 32 v60,2013-01-08 14:40:00,
2013-01-08 08:45:00,10.0,6.9,30.03,South,180,1.0,3.0,87,0.00,,,-99.99,Weather View 32 v60,2013-01-08 14:45:00,
2013-01-08 08:50:00,10.0,6.9,30.05,SW,225,1.0,3.0,87,0.00,,,-99.99,Weather View 32 v60,2013-01-08 14:50:00,
2013-01-08 09:00:00,11.0,7.9,30.05,West,270,1.0,3.0,87,0.00,,,-99.99,Weather View 32 v60,2013-01-08 15:00:00,
2013-01-08 09:05:00,12.0,8.9,30.05,WNW,292,1.0,3.0,87,0.00,,,-99.99,Weather View 32 v60,2013-01-08 15:05:00,
2013-01-08 09:10:00,12.0,8.9,30.05,WSW,248,0.0,3.0,87,0.00,,,-99.99,Weather View 32 v60,2013-01-08 15:10:00,
2013-01-08 09:15:00,13.0,10.1,30.04,SW,225,0.0,3.0,88,0.00,,,-99.99,Weather View 32 v60,2013-01-08 15:15:00,
2013-01-08 09:20:00,14.0,11.1,30.04,SW,225,0.0,3.0,88,0.00,,,-99.99,Weather View 32 v60,2013-01-08 15:20:00,
2013-01-08 09:25:00,15.0,12.1,30.04,WSW,248,0.0,3.0,88,0.00,,,-99.99,Weather View 32 v60,2013-01-08 15:25:00,
2013-01-08 09:35:00,16.0,13.1,30.04,SW,225,1.0,3.0,88,0.00,,,-99.99,Weather View 32 v60,2013-01-08 15:35:00,
2013-01-08 09:40:00,16.0,13.1,30.04,SW,225,1.0,3.0,88,0.00,,,-99.99,Weather View 32 v60,2013-01-08 15:40:00,
2013-01-08 09:45:00,17.0,14.1,30.03,SW,225,0.0,3.0,88,0.00,,,-99.99,Weather View 32 v60,2013-01-08 15:45:00,
2013-01-08 09:50:00,17.0,14.1,30.03,SW,225,1.0,2.0,88,0.00,,,-99.99,Weather View 32 v60,2013-01-08 15:50:00,
2013-01-08 09:55:00,17.0,13.8,30.02,SSW,202,1.0,3.0,87,0.00,,,-99.99,Weather View 32 v60,2013-01-08 15:55:00,
2013-01-08 10:05:00,18.0,14.8,30.01,SSW,202,2.0,3.0,87,0.00,,,-99.99,Weather View 32 v60,2013-01-08 16:05:00,
2013-01-08 10:14:00,18.0,14.8,30.00,East,90,1.0,4.0,87,0.00,,,-99.99,Weather View 32 v60,2013-01-08 16:14:00,
2013-01-08 10:20:00,19.0,15.8,30.00,South,180,1.0,4.0,87,0.00,,,-99.99,Weather View 32 v60,2013-01-08 16:20:00,
2013-01-08 10:25:00,19.0,15.8,30.00,SSW,202,1.0,4.0,87,0.00,,,-99.99,Weather View 32 v60,2013-01-08 16:25:00,
2013-01-08 10:30:00,20.0,16.8,30.01,SSW,202,2.0,4.0,87,0.00,,,-99.99,Weather View 32 v60,2013-01-08 16:30:00,
2013-01-08 10:35:00,20.0,16.8,30.01,SSW,202,1.0,4.0,87,0.00,,,-99.99,Weather View 32 v60,2013-01-08 16:35:00,
2013-01-08 10:45:00,21.0,17.7,30.00,SSW,202,1.0,4.0,87,0.00,,,-99.99,Weather View 32 v60,2013-01-08 16:45:00,
2013-01-08 10:50:00,21.0,17.5,29.99,South,180,2.0,4.0,86,0.00,,,-99.99,Weather View 32 v60,2013-01-08 16:50:00,
2013-01-08 10:55:00,22.0,18.5,29.99,SW,225,1.0,4.0,86,0.00,,,-99.99,Weather View 32 v60,2013-01-08 16:55:00,
2013-01-08 11:00:00,22.0,18.5,29.98,SE,135,3.0,4.0,86,0.00,,,-99.99,Weather View 32 v60,2013-01-08 17:00:00,
2013-01-08 11:05:00,22.0,18.5,29.98,South,180,1.0,4.0,86,0.00,,,-99.99,Weather View 32 v60,2013-01-08 17:05:00,
2013-01-08 11:15:00,23.0,19.4,29.97,SSE,158,2.0,3.0,86,0.00,,,-99.99,Weather View 32 v60,2013-01-08 17:15:00,
2013-01-08 11:20:00,23.0,19.4,29.97,SE,135,3.0,4.0,86,0.00,,,-99.99,Weather View 32 v60,2013-01-08 17:20:00,
2013-01-08 11:25:00,24.0,20.1,29.96,SE,135,1.0,4.0,85,0.00,,,-99.99,Weather View 32 v60,2013-01-08 17:25:00,
2013-01-08 11:30:00,24.0,20.1,29.96,SSE,158,2.0,4.0,85,0.00,,,-99.99,Weather View 32 v60,2013-01-08 17:30:00,
2013-01-08 11:35:00,25.0,21.1,29.95,SE,135,3.0,4.0,85,0.00,,,-99.99,Weather View 32 v60,2013-01-08 17:35:00,
2013-01-08 11:40:00,26.0,22.1,29.95,SW,225,1.0,4.0,85,0.00,,,-99.99,Weather View 32 v60,2013-01-08 17:40:00,
2013-01-08 11:50:00,28.0,23.8,29.95,ESE,112,2.0,4.0,84,0.00,,,-99.99,Weather View 32 v60,2013-01-08 17:50:00,
2013-01-08 11:55:00,29.0,24.5,29.94,SW,225,0.0,4.0,83,0.00,,,-99.99,Weather View 32 v60,2013-01-08 17:55:00,
2013-01-08 12:00:00,30.0,25.2,29.94,WSW,248,1.0,4.0,82,0.00,,,-99.99,Weather View 32 v60,2013-01-08 18:00:00,
2013-01-08 12:05:00,30.0,24.9,29.94,SSW,202,1.0,4.0,81,0.00,,,-99.99,Weather View 32 v60,2013-01-08 18:05:00,
2013-01-08 12:15:00,30.0,24.3,29.92,South,180,1.0,5.0,79,0.00,,,-99.99,Weather View 32 v60,2013-01-08 18:15:00,
2013-01-08 12:20:00,30.0,24.0,29.92,SE,135,3.0,5.0,78,0.00,,,-99.99,Weather View 32 v60,2013-01-08 18:20:00,
2013-01-08 12:25:00,31.0,24.6,29.91,South,180,1.0,5.0,77,0.00,,,-99.99,Weather View 32 v60,2013-01-08 18:25:00,
2013-01-08 12:30:00,31.0,24.6,29.91,SE,135,2.0,5.0,77,0.00,,,-99.99,Weather View 32 v60,2013-01-08 18:30:00,
2013-01-08 12:35:00,31.0,24.3,29.91,South,180,2.0,5.0,76,0.00,,,-99.99,Weather View 32 v60,2013-01-08 18:35:00,
2013-01-08 12:45:00,32.0,25.3,29.90,SSW,202,1.0,5.0,76,0.00,,,-99.99,Weather View 32 v60,2013-01-08 18:45:00,
2013-01-08 12:50:00,32.0,25.0,29.90,South,180,3.0,5.0,75,0.00,,,-99.99,Weather View 32 v60,2013-01-08 18:50:00,
2013-01-08 12:55:00,33.0,25.6,29.89,SSE,158,2.0,5.0,74,0.00,,,-99.99,Weather View 32 v60,2013-01-08 18:55:00,
2013-01-08 13:00:00,33.0,25.6,29.89,South,180,3.0,5.0,74,0.00,,,-99.99,Weather View 32 v60,2013-01-08 19:00:00,
2013-01-08 13:05:00,33.0,25.3,29.89,SSE,158,2.0,5.0,73,0.00,,,-99.99,Weather View 32 v60,2013-01-08 19:05:00,
2013-01-08 13:10:00,34.0,26.3,29.89,South,180,3.0,5.0,73,0.00,,,-99.99,Weather View 32 v60,2013-01-08 19:10:00,
2013-01-08 13:15:00,34.0,25.9,29.89,SSW,202,3.0,6.0,72,0.00,,,-99.99,Weather View 32 v60,2013-01-08 19:15:00,
2013-01-08 13:25:00,35.0,25.5,29.87,SSE,158,6.0,10.0,68,0.00,,,-99.99,Weather View 32 v60,2013-01-08 19:25:00,
2013-01-08 13:30:00,35.0,25.5,29.87,SSE,158,5.0,10.0,68,0.00,,,-99.99,Weather View 32 v60,2013-01-08 19:30:00,
2013-01-08 13:35:00,35.0,25.1,29.86,SSW,202,3.0,10.0,67,0.00,,,-99.99,Weather View 32 v60,2013-01-08 19:35:00,
2013-01-08 13:45:00,35.0,24.8,29.85,South,180,2.0,10.0,66,0.00,,,-99.99,Weather View 32 v60,2013-01-08 19:45:00,
2013-01-08 13:50:00,35.0,24.8,29.85,South,180,5.0,10.0,66,0.00,,,-99.99,Weather View 32 v60,2013-01-08 19:50:00,
2013-01-08 13:55:00,35.0,25.1,29.84,SSE,158,3.0,10.0,67,0.00,,,-99.99,Weather View 32 v60,2013-01-08 19:55:00,
2013-01-08 14:00:00,35.0,24.8,29.84,South,180,2.0,10.0,66,0.00,,,-99.99,Weather View 32 v60,2013-01-08 20:00:00,
2013-01-08 14:05:00,35.0,25.1,29.83,SSW,202,3.0,10.0,67,0.00,,,-99.99,Weather View 32 v60,2013-01-08 20:05:00,
2013-01-08 14:15:00,35.0,25.1,29.84,SSW,202,3.0,10.0,67,0.00,,,-99.99,Weather View 32 v60,2013-01-08 20:15:00,
2013-01-08 14:20:00,35.0,25.1,29.83,South,180,3.0,10.0,67,0.00,,,-99.99,Weather View 32 v60,2013-01-08 20:20:00,
2013-01-08 14:25:00,36.0,26.1,29.83,SSW,202,5.0,10.0,67,0.00,,,-99.99,Weather View 32 v60,2013-01-08 20:25:00,
2013-01-08 14:30:00,36.0,26.1,29.84,West,270,3.0,10.0,67,0.00,,,-99.99,Weather View 32 v60,2013-01-08 20:30:00,
2013-01-08 14:40:00,36.0,26.1,29.83,SSW,202,4.0,8.0,67,0.00,,,-99.99,Weather View 32 v60,2013-01-08 20:40:00,
2013-01-08 14:45:00,36.0,25.7,29.83,SSW,202,3.0,9.0,66,0.00,,,-99.99,Weather View 32 v60,2013-01-08 20:45:00,
2013-01-08 14:50:00,36.0,25.7,29.83,SSW,202,10.0,10.0,66,0.00,,,-99.99,Weather View 32 v60,2013-01-08 20:50:00,
2013-01-08 15:00:00,36.0,25.7,29.83,SSW,202,3.0,11.0,66,0.00,,,-99.99,Weather View 32 v60,2013-01-08 21:00:00,
2013-01-08 15:05:00,36.0,25.7,29.83,SSW,202,3.0,11.0,66,0.00,,,-99.99,Weather View 32 v60,2013-01-08 21:05:00,
2013-01-08 15:10:00,36.0,25.7,29.82,SSW,202,8.0,11.0,66,0.00,,,-99.99,Weather View 32 v60,2013-01-08 21:10:00,
2013-01-08 15:15:00,36.0,25.7,29.82,SSW,202,8.0,11.0,66,0.00,,,-99.99,Weather View 32 v60,2013-01-08 21:15:00,
2013-01-08 15:20:00,35.0,24.8,29.82,SSW,202,6.0,11.0,66,0.00,,,-99.99,Weather View 32 v60,2013-01-08 21:20:00,
2013-01-08 15:25:00,35.0,24.8,29.82,South,180,3.0,11.0,66,0.00,,,-99.99,Weather View 32 v60,2013-01-08 21:25:00,
2013-01-08 15:30:00,35.0,25.1,29.81,SSW,202,5.0,11.0,67,0.00,,,-99.99,Weather View 32 v60,2013-01-08 21:30:00,
2013-01-08 15:40:00,34.0,24.2,29.80,SSW,202,8.0,14.0,67,0.00,,,-99.99,Weather View 32 v60,2013-01-08 21:40:00,
2013-01-08 15:45:00,34.0,24.5,29.80,SSW,202,6.0,14.0,68,0.00,,,-99.99,Weather View 32 v60,2013-01-08 21:45:00,
2013-01-08 15:50:00,34.0,24.5,29.79,South,180,9.0,14.0,68,0.00,,,-99.99,Weather View 32 v60,2013-01-08 21:50:00,
2013-01-08 15:55:00,34.0,24.5,29.78,South,180,6.0,14.0,68,0.00,,,-99.99,Weather View 32 v60,2013-01-08 21:55:00,
2013-01-08 16:00:00,34.0,24.5,29.79,SSW,202,5.0,14.0,68,0.00,,,-99.99,Weather View 32 v60,2013-01-08 22:00:00,
2013-01-08 16:05:00,34.0,24.5,29.79,SSW,202,8.0,14.0,68,0.00,,,-99.99,Weather View 32 v60,2013-01-08 22:05:00,
2013-01-08 16:15:00,33.0,23.9,29.80,SSW,202,8.0,14.0,69,0.00,,,-99.99,Weather View 32 v60,2013-01-08 22:15:00,
2013-01-08 16:20:00,33.0,23.9,29.80,SW,225,4.0,14.0,69,0.00,,,-99.99,Weather View 32 v60,2013-01-08 22:20:00,
2013-01-08 16:30:00,33.0,24.3,29.79,South,180,4.0,14.0,70,0.00,,,-99.99,Weather View 32 v60,2013-01-08 22:30:00,
2013-01-08 16:35:00,33.0,24.6,29.80,SW,225,8.0,17.0,71,0.00,,,-99.99,Weather View 32 v60,2013-01-08 22:35:00,
2013-01-08 16:40:00,33.0,24.6,29.79,SSW,202,9.0,17.0,71,0.00,,,-99.99,Weather View 32 v60,2013-01-08 22:40:00,
2013-01-08 16:45:00,33.0,24.6,29.80,WSW,248,3.0,17.0,71,0.00,,,-99.99,Weather View 32 v60,2013-01-08 22:45:00,
2013-01-08 16:50:00,32.0,23.7,29.80,WSW,248,5.0,17.0,71,0.00,,,-99.99,Weather View 32 v60,2013-01-08 22:50:00,
2013-01-08 16:55:00,32.0,24.0,29.80,SSW,202,6.0,17.0,72,0.00,,,-99.99,Weather View 32 v60,2013-01-08 22:55:00,
2013-01-08 17:05:00,32.0,24.0,29.80,WNW,292,5.0,17.0,72,0.00,,,-99.99,Weather View 32 v60,2013-01-08 23:05:00,
2013-01-08 17:10:00,32.0,24.0,29.80,South,180,8.0,17.0,72,0.00,,,-99.99,Weather View 32 v60,2013-01-08 23:10:00,
2013-01-08 17:15:00,32.0,24.3,29.80,West,270,8.0,17.0,73,0.00,,,-99.99,Weather View 32 v60,2013-01-08 23:15:00,
2013-01-08 17:20:00,32.0,24.3,29.80,SW,225,9.0,17.0,73,0.00,,,-99.99,Weather View 32 v60,2013-01-08 23:20:00,
2013-01-08 17:25:00,32.0,24.3,29.80,SSW,202,7.0,17.0,73,0.00,,,-99.99,Weather View 32 v60,2013-01-08 23:25:00,
2013-01-08 17:30:00,32.0,24.6,29.80,South,180,6.0,17.0,74,0.00,,,-99.99,Weather View 32 v60,2013-01-08 23:30:00,
2013-01-08 17:35:00,32.0,24.6,29.80,SW,225,6.0,17.0,74,0.00,,,-99.99,Weather View 32 v60,2013-01-08 23:35:00,
2013-01-08 17:40:00,32.0,24.6,29.80,SSW,202,2.0,15.0,74,0.00,,,-99.99,Weather View 32 v60,2013-01-08 23:40:00,
2013-01-08 17:50:00,32.0,25.0,29.79,NW,315,2.0,15.0,75,0.00,,,-99.99,Weather View 32 v60,2013-01-08 23:50:00,
2013-01-08 18:00:00,32.0,25.0,29.79,WNW,292,2.0,14.0,75,0.00,,,-99.99,Weather View 32 v60,2013-01-09 00:00:00,
2013-01-08 18:05:00,32.0,25.0,29.79,SW,225,4.0,14.0,75,0.00,,,-99.99,Weather View 32 v60,2013-01-09 00:05:00,
2013-01-08 18:10:00,32.0,25.0,29.80,West,270,5.0,13.0,75,0.00,,,-99.99,Weather View 32 v60,2013-01-09 00:10:00,
2013-01-08 18:15:00,32.0,25.3,29.79,SSW,202,6.0,13.0,76,0.00,,,-99.99,Weather View 32 v60,2013-01-09 00:15:00,
2013-01-08 18:20:00,32.0,25.3,29.79,WSW,248,5.0,13.0,76,0.00,,,-99.99,Weather View 32 v60,2013-01-09 00:20:00,
2013-01-08 18:25:00,32.0,25.3,29.79,WSW,248,4.0,13.0,76,0.00,,,-99.99,Weather View 32 v60,2013-01-09 00:25:00,
2013-01-08 18:32:00,32.0,25.3,29.79,WNW,292,3.0,13.0,76,0.00,,,-99.99,Weather View 32 v60,2013-01-09 00:32:00,
2013-01-08 18:40:00,32.0,25.3,29.79,WSW,248,6.0,13.0,76,0.00,,,-99.99,Weather View 32 v60,2013-01-09 00:40:00,
2013-01-08 18:45:00,32.0,25.6,29.79,WNW,292,4.0,13.0,77,0.00,,,-99.99,Weather View 32 v60,2013-01-09 00:45:00,
2013-01-08 18:50:00,32.0,25.6,29.78,WSW,248,6.0,13.0,77,0.00,,,-99.99,Weather View 32 v60,2013-01-09 00:50:00,
2013-01-08 18:55:00,32.0,25.6,29.79,SW,225,4.0,13.0,77,0.00,,,-99.99,Weather View 32 v60,2013-01-09 00:55:00,
2013-01-08 19:00:00,32.0,25.6,29.79,SW,225,7.0,13.0,77,0.00,,,-99.99,Weather View 32 v60,2013-01-09 01:00:00,
2013-01-08 19:05:00,32.0,25.6,29.78,WSW,248,5.0,13.0,77,0.00,,,-99.99,Weather View 32 v60,2013-01-09 01:05:00,
2013-01-08 19:10:00,32.0,25.6,29.79,WSW,248,5.0,13.0,77,0.00,,,-99.99,Weather View 32 v60,2013-01-09 01:10:00,
2013-01-08 19:20:00,32.0,25.9,29.79,SW,225,5.0,11.0,78,0.00,,,-99.99,Weather View 32 v60,2013-01-09 01:20:00,
2013-01-08 19:25:00,32.0,25.9,29.79,WNW,292,7.0,11.0,78,0.00,,,-99.99,Weather View 32 v60,2013-01-09 01:25:00,
2013-01-08 19:30:00,32.0,25.9,29.79,WNW,292,6.0,11.0,78,0.00,,,-99.99,Weather View 32 v60,2013-01-09 01:30:00,
2013-01-08 19:35:00,32.0,25.9,29.80,WNW,292,7.0,11.0,78,0.00,,,-99.99,Weather View 32 v60,2013-01-09 01:35:00,
2013-01-08 19:45:00,32.0,25.9,29.79,West,270,2.0,11.0,78,0.00,,,-99.99,Weather View 32 v60,2013-01-09 01:45:00,
2013-01-08 19:50:00,32.0,25.9,29.79,SW,225,4.0,12.0,78,0.00,,,-99.99,Weather View 32 v60,2013-01-09 01:50:00,
2013-01-08 20:00:00,32.0,26.2,29.79,WNW,292,9.0,12.0,79,0.00,,,-99.99,Weather View 32 v60,2013-01-09 02:00:00,
2013-01-08 20:10:00,32.0,26.2,29.80,West,270,5.0,12.0,79,0.00,,,-99.99,Weather View 32 v60,2013-01-09 02:10:00,
2013-01-08 20:15:00,32.0,26.2,29.80,SW,225,5.0,12.0,79,0.00,,,-99.99,Weather View 32 v60,2013-01-09 02:15:00,
2013-01-08 20:20:00,32.0,26.2,29.80,WSW,248,11.0,13.0,79,0.00,,,-99.99,Weather View 32 v60,2013-01-09 02:20:00,
2013-01-08 20:30:00,32.0,25.9,29.81,SW,225,9.0,14.0,78,0.00,,,-99.99,Weather View 32 v60,2013-01-09 02:30:00,
2013-01-08 20:35:00,32.0,25.9,29.81,NNW,338,4.0,15.0,78,0.00,,,-99.99,Weather View 32 v60,2013-01-09 02:35:00,
2013-01-08 20:40:00,32.0,25.9,29.81,West,270,5.0,15.0,78,0.00,,,-99.99,Weather View 32 v60,2013-01-09 02:40:00,
2013-01-08 20:45:00,32.0,25.9,29.81,WNW,292,8.0,16.0,78,0.00,,,-99.99,Weather View 32 v60,2013-01-09 02:45:00,
2013-01-08 20:50:00,32.0,25.9,29.81,NW,315,5.0,16.0,78,0.00,,,-99.99,Weather View 32 v60,2013-01-09 02:50:00,
2013-01-08 20:55:00,32.0,25.9,29.82,WSW,248,4.0,16.0,78,0.00,,,-99.99,Weather View 32 v60,2013-01-09 02:55:00,
2013-01-08 21:00:00,32.0,25.9,29.82,WNW,292,3.0,16.0,78,0.00,,,-99.99,Weather View 32 v60,2013-01-09 03:00:00,
2013-01-08 21:05:00,32.0,25.9,29.82,North,0,5.0,16.0,78,0.00,,,-99.99,Weather View 32 v60,2013-01-09 03:05:00,
2013-01-08 21:15:00,31.0,24.9,29.82,NW,315,5.0,16.0,78,0.00,,,-99.99,Weather View 32 v60,2013-01-09 03:15:00,
2013-01-08 21:20:00,31.0,24.9,29.82,WNW,292,5.0,16.0,78,0.00,,,-99.99,Weather View 32 v60,2013-01-09 03:20:00,
2013-01-08 21:30:00,31.0,24.9,29.83,West,270,3.0,16.0,78,0.00,,,-99.99,Weather View 32 v60,2013-01-09 03:30:00,
2013-01-08 21:35:00,31.0,24.9,29.83,WNW,292,6.0,16.0,78,0.00,,,-99.99,Weather View 32 v60,2013-01-09 03:35:00,
2013-01-08 21:45:00,31.0,25.3,29.83,NW,315,4.0,16.0,79,0.00,,,-99.99,Weather View 32 v60,2013-01-09 03:45:00,
2013-01-08 21:50:00,31.0,25.3,29.83,WNW,292,3.0,16.0,79,0.00,,,-99.99,Weather View 32 v60,2013-01-09 03:50:00,
2013-01-08 22:00:00,31.0,24.9,29.84,SSW,202,4.0,16.0,78,0.00,,,-99.99,Weather View 32 v60,2013-01-09 04:00:00,
2013-01-08 22:05:00,31.0,25.3,29.84,WNW,292,3.0,16.0,79,0.00,,,-99.99,Weather View 32 v60,2013-01-09 04:05:00,
2013-01-08 22:10:00,31.0,25.3,29.84,WSW,248,5.0,16.0,79,0.00,,,-99.99,Weather View 32 v60,2013-01-09 04:10:00,
2013-01-08 22:15:00,31.0,25.3,29.85,WNW,292,4.0,13.0,79,0.00,,,-99.99,Weather View 32 v60,2013-01-09 04:15:00,
2013-01-08 22:20:00,31.0,25.3,29.85,WNW,292,2.0,11.0,79,0.00,,,-99.99,Weather View 32 v60,2013-01-09 04:20:00,
2013-01-08 22:25:00,30.0,24.6,29.87,WSW,248,4.0,12.0,80,0.00,,,-99.99,Weather View 32 v60,2013-01-09 04:25:00,
2013-01-08 22:30:00,31.0,25.3,29.85,WNW,292,4.0,11.0,79,0.00,,,-99.99,Weather View 32 v60,2013-01-09 04:30:00,
2013-01-08 22:35:00,31.0,25.3,29.86,NNW,338,3.0,11.0,79,0.00,,,-99.99,Weather View 32 v60,2013-01-09 04:35:00,
2013-01-08 22:40:00,30.0,24.6,29.88,West,270,2.0,12.0,80,0.00,,,-99.99,Weather View 32 v60,2013-01-09 04:40:00,
2013-01-08 22:45:00,31.0,25.3,29.86,West,270,5.0,11.0,79,0.00,,,-99.99,Weather View 32 v60,2013-01-09 04:45:00,
2013-01-08 22:50:00,31.0,25.3,29.86,NW,315,5.0,11.0,79,0.00,,,-99.99,Weather View 32 v60,2013-01-09 04:50:00,
2013-01-08 22:55:00,30.0,24.9,29.89,WNW,292,5.0,12.0,81,0.00,,,-99.99,Weather View 32 v60,2013-01-09 04:55:00,
2013-01-08 23:00:00,30.0,24.9,29.89,WSW,248,5.0,11.0,81,0.00,,,-99.99,Weather View 32 v60,2013-01-09 05:00:00,
2013-01-08 23:05:00,30.0,24.9,29.89,West,270,6.0,11.0,81,0.00,,,-99.99,Weather View 32 v60,2013-01-09 05:05:00,
2013-01-08 23:10:00,30.0,24.9,29.89,WSW,248,7.0,11.0,81,0.00,,,-99.99,Weather View 32 v60,2013-01-09 05:10:00,
2013-01-08 23:15:00,30.0,24.9,29.89,West,270,5.0,12.0,81,0.00,,,-99.99,Weather View 32 v60,2013-01-09 05:15:00,
2013-01-08 23:20:00,29.0,23.9,29.89,West,270,7.0,12.0,81,0.00,,,-99.99,Weather View 32 v60,2013-01-09 05:20:00,
2013-01-08 23:25:00,29.0,23.9,29.90,SW,225,6.0,12.0,81,0.00,,,-99.99,Weather View 32 v60,2013-01-09 05:25:00,
2013-01-08 23:30:00,29.0,23.9,29.89,West,270,6.0,12.0,81,0.00,,,-99.99,Weather View 32 v60,2013-01-09 05:30:00,
2013-01-08 23:35:00,29.0,23.9,29.89,WNW,292,5.0,12.0,81,0.00,,,-99.99,Weather View 32 v60,2013-01-09 05:35:00,
2013-01-08 23:40:00,29.0,24.2,29.90,West,270,5.0,12.0,82,0.00,,,-99.99,Weather View 32 v60,2013-01-09 05:40:00,
2013-01-08 23:45:00,29.0,24.2,29.90,NW,315,4.0,12.0,82,0.00,,,-99.99,Weather View 32 v60,2013-01-09 05:45:00,
2013-01-08 23:50:00,29.0,24.2,29.90,West,270,5.0,12.0,82,0.00,,,-99.99,Weather View 32 v60,2013-01-09 05:50:00,
2013-01-08 23:55:00,29.0,24.2,29.90,West,270,8.0,12.0,82,0.00,,,-99.99,Weather View 32 v60,2013-01-09 05:55:00,